Weather History for KORB - October, 2012

Change the Weather History Date:

Sunday, October 14, 2012

  Actual Average Record
Temperature  
Mean Temperature 40 °F -  
Max Temperature 55 °F 49 °F 64 °F (2005)
Min Temperature 26 °F 32 °F 26 °F (2002)
Degree Days  
Heating Degree Days 24    
Moisture  
Dew Point 31 °F    
Average Humidity 76    
Maximum Humidity 100    
Minimum Humidity 38    
Precipitation  
Precipitation 0.00 in - - ()
Sea Level Pressure  
Sea Level Pressure 29.81 in    
Wind  
Wind Speed 0 mph (NW)    
Max Wind Speed 5 mph    
Max Gust Speed -    
Visibility 6 miles    
Events Fog    
Averages and records for this station are not official NWS values.
T = Trace of Precipitation, MM = Missing Value Source: NWS Daily Summary

Daily Weather History Graph

Daily Weather History Graph

Search for Another Location

Airport or City:

Trip Planner

Search our weather history database for the weather conditions in past years. The results will help you decide how hot, cold, wet, or windy it might be!

Date:

Astronomy

Oct. 14, 2012 Rise Set
Actual Time 7:30 AM CDT 6:23 PM CDT
Civil Twilight 6:58 AM CDT 6:54 PM CDT
Nautical Twilight 6:22 AM CDT 7:30 PM CDT
Astronomical Twilight 5:46 AM CDT 8:06 PM CDT
Moon 6:28 AM CDT (10/14) 5:42 PM CDT (10/14)
Length of Visible Light 11h 56m
Length of Day
10h 53m
Waning Crescent, 1% of the Moon is Illuminated
Oct 14
Waning Crescent
Oct 15
New
Oct 21
First Quarter
Oct 29
Full
Nov 6
Last Quarter

Hourly Weather History & Observations

Time (CDT) Temp. Windchill Dew Point Humidity Pressure Visibility Wind Dir Wind Speed Gust Speed Precip Events Conditions
12:13 AM 30.2 °F - 30.2 °F 100% 29.80 in 3.0 mi Calm Calm - N/A   Clear
12:33 AM 28.4 °F - 28.4 °F 100% 29.79 in 5.0 mi Calm Calm - N/A   Clear
12:53 AM 28.4 °F - 26.6 °F 93% 29.79 in 7.0 mi Calm Calm - N/A   Clear
1:13 AM 28.4 °F - 26.6 °F 93% 29.78 in 7.0 mi Calm Calm - N/A   Clear
1:33 AM 28.4 °F - 28.4 °F 100% 29.78 in 0.8 mi Calm Calm - N/A   Overcast
1:53 AM 28.4 °F - 28.4 °F 100% 29.79 in 0.8 mi Calm Calm - N/A   Overcast
2:13 AM 28.4 °F - 26.6 °F 93% 29.79 in 1.8 mi Calm Calm - N/A   Mostly Cloudy
2:34 AM 28.4 °F - 26.6 °F 93% 29.79 in 0.8 mi Calm Calm - N/A   Overcast
2:53 AM 28.4 °F - 26.6 °F 93% 29.79 in 0.5 mi Calm Calm - N/A Fog Light Freezing Fog
3:13 AM 28.4 °F - 26.6 °F 93% 29.79 in 1.2 mi Calm Calm - N/A   Overcast
3:33 AM 28.4 °F - 26.6 °F 93% 29.80 in 0.5 mi Calm Calm - N/A Fog Light Freezing Fog
3:53 AM 26.6 °F - 26.6 °F 100% 29.81 in 0.5 mi Calm Calm - N/A Fog Light Freezing Fog
4:13 AM 28.4 °F - 26.6 °F 93% 29.80 in 10.0 mi Calm Calm - N/A   Mostly Cloudy
4:33 AM 28.4 °F - 26.6 °F 93% 29.81 in 1.0 mi Calm Calm - N/A   Overcast
4:53 AM 28.4 °F - 26.6 °F 93% 29.80 in 0.5 mi Calm Calm - N/A Fog Light Freezing Fog
5:13 AM 28.4 °F - 26.6 °F 93% 29.81 in 1.0 mi Calm Calm - N/A   Overcast
5:33 AM 30.2 °F - 28.4 °F 93% 29.81 in 1.0 mi Calm Calm - N/A   Overcast
5:53 AM 28.4 °F - 26.6 °F 93% 29.82 in 0.5 mi Calm Calm - N/A Fog Light Freezing Fog
6:14 AM 30.2 °F - 28.4 °F 93% 29.82 in 2.0 mi Calm Calm - N/A   Mostly Cloudy
6:33 AM 28.4 °F - 26.6 °F 93% 29.82 in 10.0 mi Calm Calm - N/A   Clear
6:53 AM 28.4 °F - 26.6 °F 93% 29.83 in 1.5 mi Calm Calm - N/A   Mostly Cloudy
7:13 AM 28.4 °F - 26.6 °F 93% 29.83 in 1.0 mi Calm Calm - N/A   Overcast
7:33 AM 28.4 °F - 26.6 °F 93% 29.83 in 0.5 mi Calm Calm - N/A Fog Light Freezing Fog
7:53 AM 28.4 °F - 26.6 °F 93% 29.83 in 0.2 mi Calm Calm - N/A Fog Light Freezing Fog
8:14 AM 30.2 °F - 28.4 °F 93% 29.84 in 0.2 mi Calm Calm - N/A Fog Light Freezing Fog
8:33 AM 30.2 °F - 28.4 °F 93% 29.83 in 0.5 mi Calm Calm - N/A Fog Light Freezing Fog
8:53 AM 30.2 °F - 30.2 °F 100% 29.83 in 0.5 mi Calm Calm - N/A Fog Light Freezing Fog
9:13 AM 32.0 °F - 30.2 °F 93% 29.83 in 1.0 mi Calm Calm - N/A   Overcast
9:33 AM 33.8 °F - 32.0 °F 93% 29.83 in 0.2 mi Calm Calm - N/A Fog Fog
9:53 AM 35.6 °F - 33.8 °F 93% 29.83 in 0.5 mi Calm Calm - N/A Fog Fog
10:13 AM 35.6 °F - 35.6 °F 100% 29.84 in 1.0 mi Calm Calm - N/A   Overcast
10:33 AM 39.2 °F - 37.4 °F 93% 29.83 in 7.0 mi Calm Calm - N/A   Scattered Clouds
10:53 AM 41.0 °F - 39.2 °F 93% 29.83 in 10.0 mi Calm Calm - N/A   Clear
11:13 AM 42.8 °F - 39.2 °F 87% 29.82 in 10.0 mi Calm Calm - N/A   Clear
11:33 AM 44.6 °F - 42.8 °F 93% 29.82 in 10.0 mi Calm Calm - N/A   Clear
11:53 AM 48.2 °F - 37.4 °F 66% 29.81 in 10.0 mi Calm Calm - N/A   Clear
12:13 PM 50.0 °F - 35.6 °F 58% 29.81 in 10.0 mi Calm Calm - N/A   Clear
12:33 PM 51.8 °F - 35.6 °F 54% 29.81 in 10.0 mi Calm Calm - N/A   Clear
12:53 PM 51.8 °F - 33.8 °F 50% 29.80 in 10.0 mi Calm Calm - N/A   Clear
1:13 PM 51.8 °F - 32.0 °F 47% 29.80 in 10.0 mi Calm Calm - N/A   Clear
1:33 PM 53.6 °F - 33.8 °F 47% 29.80 in 10.0 mi WNW 3.5 mph - N/A   Clear
1:53 PM 53.6 °F - 33.8 °F 47% 29.79 in 10.0 mi Calm Calm - N/A   Scattered Clouds
2:13 PM 53.6 °F - 32.0 °F 44% 29.79 in 10.0 mi Calm Calm - N/A   Scattered Clouds
2:53 PM 55.4 °F - 30.2 °F 38% 29.78 in 10.0 mi WNW 3.5 mph - N/A   Clear
3:13 PM 55.4 °F - 30.2 °F 38% 29.78 in 10.0 mi Calm Calm - N/A   Mostly Cloudy
3:33 PM 53.6 °F - 30.2 °F 41% 29.78 in 10.0 mi Calm Calm - N/A   Mostly Cloudy
3:54 PM 55.4 °F - 30.2 °F 38% 29.78 in 10.0 mi Calm Calm - N/A   Mostly Cloudy
4:13 PM 53.6 °F - 30.2 °F 41% 29.78 in 10.0 mi Calm Calm - N/A   Overcast
4:34 PM 53.6 °F - 30.2 °F 41% 29.78 in 10.0 mi Calm Calm - N/A   Mostly Cloudy
4:53 PM 53.6 °F - 30.2 °F 41% 29.78 in 10.0 mi Calm Calm - N/A   Mostly Cloudy
5:13 PM 51.8 °F - 30.2 °F 44% 29.79 in 10.0 mi Calm Calm - N/A   Mostly Cloudy
5:33 PM 51.8 °F - 32.0 °F 47% 29.79 in 10.0 mi Calm Calm - N/A   Overcast
5:54 PM 51.8 °F - 32.0 °F 47% 29.80 in 10.0 mi Calm Calm - N/A   Overcast
6:14 PM 51.8 °F - 32.0 °F 47% 29.80 in 10.0 mi Calm Calm - N/A   Overcast
6:53 PM 48.2 °F - 33.8 °F 58% 29.81 in 10.0 mi Calm Calm - N/A   Overcast
7:13 PM 48.2 °F - 33.8 °F 58% 29.81 in 10.0 mi Calm Calm - N/A   Overcast
7:33 PM 48.2 °F - 33.8 °F 58% 29.82 in 10.0 mi Calm Calm - N/A   Overcast
7:53 PM 46.4 °F - 33.8 °F 62% 29.82 in 10.0 mi Calm Calm - N/A   Overcast
8:13 PM 46.4 °F - 35.6 °F 66% 29.82 in 10.0 mi Calm Calm - N/A   Mostly Cloudy
8:33 PM 44.6 °F - 35.6 °F 71% 29.82 in 10.0 mi Calm Calm - N/A   Scattered Clouds
8:53 PM 44.6 °F - 35.6 °F 71% 29.82 in 10.0 mi Calm Calm - N/A   Mostly Cloudy
9:13 PM 46.4 °F - 35.6 °F 66% 29.82 in 10.0 mi Calm Calm - N/A   Overcast
9:33 PM 46.4 °F 45.2 °F 37.4 °F 71% 29.82 in 10.0 mi NW 3.5 mph - N/A   Overcast
9:53 PM 44.6 °F - 37.4 °F 76% 29.82 in 10.0 mi Calm Calm - N/A   Mostly Cloudy
10:13 PM 44.6 °F 43.1 °F 35.6 °F 71% 29.82 in 10.0 mi NW 3.5 mph - N/A   Mostly Cloudy
10:33 PM 42.8 °F 41.1 °F 35.6 °F 76% 29.83 in 10.0 mi NW 3.5 mph - N/A   Scattered Clouds
10:53 PM 42.8 °F 40.1 °F 35.6 °F 76% 29.83 in 10.0 mi NW 4.6 mph - N/A   Scattered Clouds
11:13 PM 41.0 °F 39.0 °F 33.8 °F 76% 29.83 in 10.0 mi NW 3.5 mph - N/A   Scattered Clouds
11:33 PM 39.2 °F - 33.8 °F 81% 29.83 in 10.0 mi Calm Calm - N/A   Clear
11:53 PM 37.4 °F - 33.8 °F 87% 29.83 in 10.0 mi Calm Calm - N/A   Clear